Regional Weather Roundup
Issued by NWS

Home | Current Version | Previous Version | Graphics & Text | Print | Product List | Glossary On
Versions: 1 2 3 4 5 6 7 8 9 10 11 12 13 14 15 16 17 18 19 20 21 22 23 24 25 26 27 28 29 30 31 32 33 34 35 36 37 38 39 40 41 42 43 44 45 46 47 48 49 50
412
ASUS45 KTFX 211110
RWRMT
MONTANA REGIONAL WEATHER ROUNDUP
NATIONAL WEATHER SERVICE GREAT FALLS MT
400 AM MST WED FEB 21 2018

NOTE: "FAIR" INDICATES FEW OR NO CLOUDS BELOW 12000 FEET WITH NO
SIGNIFICANT WEATHER AND/OR OBSTRUCTIONS TO VISIBILITY.

MTZ001>007-043-211200-
WEST OF THE DIVIDE

CITY           SKY/WX    TMP DP  RH WIND       PRES   REMARKS
KALISPELL      CLOUDY    -7 -10  87 CALM      30.20F
MISSOULA       CLOUDY     5   1  83 W3        30.19R
BUTTE          CLOUDY   -10 -16  74 CALM      30.00S
MULLAN PASS    FAIR      -1  -8  72 CALM      29.91F
ANACONDA         N/A      1  -8  66 CALM      30.04S
DEER LODGE       N/A     -2  -8  78 NW3       30.08F
HAMILTON         N/A      7   0  72 MISG      30.14S
PLAINS           N/A     -6 -16  62 CALM      30.24F VSB 0
RONAN            N/A     -2  -6  84 NE3       30.21S
$$

MTZ008-052>055-211200-
SOUTHWEST MONTANA

CITY           SKY/WX    TMP DP  RH WIND       PRES   REMARKS
BOZEMAN        CLOUDY    -8 -12  83 CALM      30.09S
DILLON         FAIR      -7  -8  96 S8        30.01S WCI -23
ENNIS          CLOUDY     5  -4  66 S13       30.05F WCI -12
W YELLOWSTONE  MOCLDY   -11 -17  77 CALM      29.97F HAZE
THREE FORKS      N/A     -4 -11  72 CALM      30.08S
TWIN BRIDGES     N/A     -6 -17  59 CALM      30.02S
$$

MTZ009-010-012-014-046-048-049-054-211200-
EAST SLOPES AND CENTRAL MONTANA

CITY           SKY/WX    TMP DP  RH WIND       PRES   REMARKS
CUT BANK       FAIR      -7 -13  75 W5        30.06F
GREAT FALLS    MOCLDY    -7 -13  75 SW8       30.10S WCI -23
HELENA         MOCLDY    -5  -9  83 CALM      30.13F
AUGUSTA        FAIR     -10 -18  68 NW6       30.02F WCI -24
CHOTEAU          N/A     -4  -9  77 SW6       30.08F WCI -16
RAYNESFORD     MOCLDY    -3  -9  74 CALM      30.07F
WHITE SULPHUR    N/A     -6 -11  77 CALM      30.01S HAZE
$$

MTZ011-013-016-021-045-047-050-051-211200-
NORTH CENTRAL MONTANA

CITY           SKY/WX    TMP DP  RH WIND       PRES   REMARKS
HAVRE          FAIR     -10 -15  78 SW14      30.19F WCI -31
LEWISTOWN      CLOUDY    -7 -13  75 SE7       30.06F WCI -21
N BAR RANCH    CLOUDY   -11 -20  64 N3        30.07F
CHINOOK          N/A    -20 -26  76 CALM      30.22F
GEYSER         FAIR      -3 -12  67 SW12      30.05F WCI -21
STANFORD       MOCLDY     0 -10  63 CALM      30.03S
$$

MTZ017>020-022>027-061-062-211200-
NORTHEAST MONTANA

CITY           SKY/WX    TMP DP  RH WIND       PRES   REMARKS
GLASGOW        FAIR     -20 -25  77 SE5       30.25S
GLENDIVE       FAIR     -14 -19  79 S10       30.27R WCI -34
JORDAN           N/A    -19 -23  81 CALM      30.23F
MALTA          CLOUDY   -24 -29  76 W9        30.24S WCI -45
SIDNEY         FAIR     -13 -19  75 SW10      30.30S WCI -32
WOLF POINT     FAIR     -18 -23  77 SW7       30.30R WCI -35
PLENTYWOOD       N/A     -9 -15  77 CALM      30.21R
POPLAR           N/A    -17 -22  76 CALM      30.30S
SCOBEY           N/A    -11 -22  57 CALM      30.16S
$$

MTZ028>42-056>058-211200-
SOUTHCENTRAL AND SOUTHEAST MONTANA

CITY           SKY/WX    TMP DP  RH WIND       PRES   REMARKS
BAKER          FAIR     -12 -16  82 CALM      30.24S
BILLINGS       MOCLDY    -4 -10  75 SW10      30.14F WCI -21
LIVINGSTON     CLOUDY    -1  -8  72 N10       30.04F WCI -17
MILES CITY       N/A    -13 -18  78 S10       30.27S WCI -32
BIG TIMBER     CLOUDY    -6 -11  77 CALM      30.10S
EKALAKA          N/A     -5 -20  48 SE1       30.14S
FORSYTH          N/A    -11 -15  84 CALM      30.25R
LAUREL           N/A     -8 -13  77 CALM      30.17F
$$

REGIONAL REPORTS...DAKOTAS

CITY           SKY/WX    TMP DP  RH WIND       PRES   REMARKS
WILLISTON      FAIR      -9 -16  71 SE6       30.28R WCI -22
MINOT          FAIR      -2 -12  62 SW17      30.26R WCI -23
DICKINSON      FAIR      -3 -12  65 W14       30.23R WCI -22
BEACH          FAIR      -2 -11  65 W15       30.26R WCI -22
CROSBY         CLOUDY    -8 -15  71 SW15      30.22S WCI -29
TIOGA          FAIR      -9 -15  77 SW17      30.22R WCI -33
WATFORD CITY   FAIR      -8 -17  65 SW8       30.27R WCI -23
BISMARCK       FAIR      -5 -14  65 W7        30.35R WCI -19
GRAND FORKS    FAIR       1  -7  68 W9        30.33R WCI -14
FARGO          FAIR      -1  -8  72 SW13      30.39R WCI -19
BUFFALO SD       N/A     -6 -14  68 S9        30.17R WCI -23
RAPID CITY     FAIR     -12 -17  78 CALM      30.27S
$$

REGIONAL REPORTS...WYOMING/IDAHO/WASHINGTON

CITY           SKY/WX    TMP DP  RH WIND       PRES   REMARKS
GILLETTE       FAIR      -8 -17  64 CALM      30.15S
SHERIDAN       FAIR     -12 -19  71 CALM      30.13F
BUFFALO WY     FAIR      -4 -15  59 W6        30.06F WCI -16
CODY           FAIR      -3 -10  72 SE5       30.06F
YELLOWSTONE LA   N/A    -20 -25  77 W3        29.94F
IDAHO FALLS    FAIR       9   4  80 CALM      30.11F
SALMON         CLOUDY    11   5  77 CALM      30.11F
BOISE          FAIR      23   4  44 SE10      30.13F WCI  12
SPOKANE        FAIR       8   4  83 CALM      30.23F
$$

REGIONAL REPORTS...ALBERTA

CITY           SKY/WX    TMP DP  RH WIND       PRES   REMARKS
$$

REGIONAL REPORTS...SASKATCHEWAN

CITY           SKY/WX    TMP DP  RH WIND       PRES   REMARKS
$$




USA.gov is the U.S. government's official web portal to all federal, state and local government web resources and services.